Find Starlink 32108

NORAD ID: 59682 Int'l Des: 2024-086 Owner: SPXS Country: US Constellation: starlink operational
LEOCIRCULAR

当前视图

正在加载3D地球...

About Starlink 32108

Starlink 32108 (NORAD 59682) is a starlink constellation satellite (v2 mini) launched May 8, 2024 by SPXS of US. It operates in LEO, CIRCULAR orbit with a mass of 730.00 kg.

关于 Starlink 32108

正在加载描述...

即将过境

Passes for default location (London). Set your location on the main map for personalized predictions.

高度历史

Loading altitude history...

两行轨道根数

1 59682U 24086A 26170.38915373 -.00000080 00000-0 66103-5 0 9995
2 59682 42.9991 209.1584 0001204 270.3508 89.7206 15.27573607119610
Epoch: Jun 19, 2026 • Age: 16 hours

当前状态

高度 483.0 km
速度 7.63 km/s
星下点 22.49°N, 54.34°W
发射日期 May 8, 2024
运行时间 2.1 years
类型 internet

技术详情

分类 Payload
质量 730.00 kg
干质量 700.00 kg
总质量 730.00 kg
长度 0.30 m
直径 4.10 m
跨度 29.00 m
形状 Box + pan
制造商 SPXS
平台类型 Starlink V2M
阶段状态 In Orbit
所有者/国家 SPXS/US

Most Searched